2021-033D (48251 NORAD) Tracking and Keplerian Element Data

This shows tracking and keplerian element data for the satellite.

Feedback or suggestion? Click here.




ElementValue
Catalog48251
Name2021-033D
Epoch Orbit299
Epoch Day136.93238894
Epoch Year2021
RAAN212.441
Inclination97.3957
Eccentricity0.0011167
Argument of Perigee197.3854
Mean Anonmoly248.6754
Mean Motion15.21269281
Decay Rate2.465E-05
L11 48251U 21033D 21136.93238894 .00002465 00000-0 11325-3 0 9990
L22 48251 97.3957 212.4410 0011167 197.3854 248.6754 15.21269281 2992

Live tracking and technical data element details for 2021-033D (NORAD 48251). 2021-033D can be tracked NOW for your location showing map with azimuth and elevation plus other details from your city location.

Track the satellite on the map from your city or location and see movement details for azimuth, elevation, latitude, longitude, range, height, and movement on the map or in text.







IsCatalogInMostPopularTable: catalog: 48251, numindb: 5
Update: records affected: 1



GetName: 48251 2021-033D

Hit Count: updated at: Mon, 17 May 2021 16:52:21 GMT